Weather History for Kirksville, MO

Change the Weather History Date:

Tuesday, August 27, 2013

  Actual Average Record
Temperature  
Mean Temperature 85 °F 72 °F  
Max Temperature 97 °F 83 °F 102 °F (1936)
Min Temperature 72 °F 61 °F 47 °F (1967)
Degree Days  
Heating Degree Days 0 0  
Month to date heating degree days 5 0  
Since 1 June heating degree days 49 17  
Since 1 July heating degree days 13 1  
Cooling Degree Days 20 7  
Month to date cooling degree days 203 249  
Year to date cooling degree days 735 816  
Since 1 June cooling degree days 667 754  
Growing Degree Days 34 (Base 50)    
Moisture  
Dew Point 66 °F    
Average Humidity 62    
Maximum Humidity 93    
Minimum Humidity 31    
Precipitation  
Precipitation 0.00 in 0.15 in 1.87 in (1978)
Month to date precipitation T 3.20  
Year to date precipitation 29.89 26.79  
Sea Level Pressure  
Sea Level Pressure 30.01 in    
Wind  
Wind Speed 8 mph (SW)    
Max Wind Speed 18 mph    
Max Gust Speed 24 mph    
Visibility 10 miles    
Events      
T = Trace of Precipitation, MM = Missing Value Source: NWS Daily Summary

Daily Weather History Graph

Daily Weather History Graph

Search for Another Location

Airport:

Trip Planner

Search our weather history database for the weather conditions in past years. The results will help you decide how hot, cold, wet, or windy it might be!

Date:

Astronomy

Aug. 27, 2013 Rise Set
Actual Time 6:33 AM CDT 7:49 PM CDT
Civil Twilight 6:05 AM CDT 8:17 PM CDT
Nautical Twilight 5:31 AM CDT 8:50 PM CDT
Astronomical Twilight 4:56 AM CDT 9:25 PM CDT
Moon 11:42 PM CDT (8/27) 1:32 PM CDT (8/27)
Length of Visible Light 14h 11m
Length of Day
13h 15m
Waning Gibbous, 57% of the Moon is Illuminated
Aug 27
Waning Gibbous
Aug 28
Last Quarter
Sep 5
New
Sep 12
First Quarter
Sep 19
Full

Hourly Weather History & Observations

Time (CDT) Temp. Heat Index Dew Point Humidity Pressure Visibility Wind Dir Wind Speed Gust Speed Precip Events Conditions
12:55 AM 78.1 °F - 70.0 °F 76% 30.05 in 10.0 mi SSW 6.9 mph - N/A   Clear
1:55 AM 77.0 °F - 70.0 °F 79% 30.03 in 10.0 mi SW 5.8 mph - N/A   Clear
2:55 AM 75.0 °F - 70.0 °F 84% 30.03 in 10.0 mi SW 4.6 mph - N/A   Clear
3:55 AM 75.0 °F - 69.1 °F 82% 30.03 in 10.0 mi SW 5.8 mph - N/A   Clear
4:55 AM 73.9 °F - 69.1 °F 85% 30.02 in 10.0 mi SW 5.8 mph - N/A   Clear
5:55 AM 73.0 °F - 69.1 °F 87% 30.03 in 10.0 mi SW 6.9 mph - N/A   Clear
6:55 AM 72.0 °F - 69.1 °F 91% 30.04 in 9.0 mi SW 5.8 mph - N/A   Clear
7:55 AM 73.9 °F - 69.1 °F 85% 30.06 in 10.0 mi SW 6.9 mph - N/A   Clear
8:55 AM 79.0 °F - 69.1 °F 72% 30.05 in 10.0 mi SW 9.2 mph - N/A   Clear
9:55 AM 84.0 °F 87.0 °F 68.0 °F 58% 30.06 in 10.0 mi SW 10.4 mph 21.9 mph N/A   Clear
10:55 AM 88.0 °F 90.7 °F 66.9 °F 49% 30.05 in 10.0 mi WSW 11.5 mph - N/A   Clear
11:55 AM 91.0 °F 93.8 °F 66.0 °F 44% 30.04 in 10.0 mi WSW 10.4 mph 18.4 mph N/A   Clear
12:55 PM 93.0 °F 94.6 °F 64.0 °F 38% 30.01 in 10.0 mi WSW 12.7 mph - N/A   Clear
1:55 PM 97.0 °F 99.9 °F 64.9 °F 35% 29.99 in 10.0 mi WSW 8.1 mph 17.3 mph N/A   Clear
2:55 PM 95.0 °F 97.0 °F 64.0 °F 36% 29.96 in 10.0 mi WSW 10.4 mph 21.9 mph N/A   Partly Cloudy
3:55 PM 96.1 °F 96.9 °F 62.1 °F 32% 29.96 in 10.0 mi SW 15.0 mph 23.0 mph N/A   Clear
4:55 PM 95.0 °F 95.2 °F 61.0 °F 32% 29.96 in 10.0 mi SW 12.7 mph 21.9 mph N/A   Clear
5:55 PM 91.9 °F 92.5 °F 62.1 °F 37% 29.96 in 10.0 mi SW 12.7 mph 20.7 mph N/A   Clear
6:55 PM 89.1 °F 89.3 °F 62.1 °F 40% 29.95 in 10.0 mi SSW 6.9 mph 16.1 mph N/A   Clear
7:55 PM 84.0 °F 84.9 °F 63.0 °F 49% 29.96 in 10.0 mi SSW 5.8 mph - N/A   Clear
8:55 PM 80.1 °F 81.5 °F 63.0 °F 56% 29.97 in 10.0 mi SSW 5.8 mph - N/A   Clear
9:55 PM 78.1 °F - 64.0 °F 62% 29.98 in 10.0 mi SSW 5.8 mph - N/A   Clear
10:55 PM 77.0 °F - 64.0 °F 64% 29.99 in 10.0 mi SW 6.9 mph - N/A   Clear
11:55 PM 75.9 °F - 64.9 °F 69% 29.99 in 10.0 mi SW 4.6 mph - N/A   Clear